DELTA 1 DEB, 10828

Orbit data source: Space-Track

DELTA 1 DEB, 10828 is space debris in SSO originally from a launch on Thu, 29 Jul 1976 UTC launched from the Air Force Western Test Range (AFWTR). Debris objects in space refer to the collection of defunct objects orbiting the Earth. Examples of debris include non-operational satellites, rocket bodies, and fragments generated from explosions, collisions, or faulty payload assembly.

Loading next visibility...
Identifier
10828, 1976-077BY
Orbit
SSO
Country
Flag of USUS
Related business
Manufacturer
Unknown
Mission
Spacecraft
Bus & Motor
Unknown
Mass
Unknown
Launch date (UTC)
1976-07-29 (50 years ago)
Launch vehicle
Unknown
Launch site
Air Force Western Test Range (AFWTR)
Object type
Payload
Rocket body
Debris
Shape & HBR
Unknown shape, 0.2 m
Radar Cross Section
Small (<0.1 m²)

Expand to show TLE details & history
Last TLE update: 18 hours ago

TLE from 18 hours ago
0 DELTA 1 DEB
1 10828U 76077BY  26033.34914867 -.00000058  00000-0 -11802-3 0  9992
2 10828 102.5569 354.3451 0099451 216.5408 299.1145 12.22377158210235
Epoch: 2026-02-02T08:22Z
TLE epoch observation values (Epoch: 2026-02-02T08:22:46.445Z)
Latitude
24.72657°
Longitude
-78.03557°
Altitude
1,546.914 km
Speed
7.112 km/s
True Right ascension
12h 00m 48s
True Declination
24° 36' 33"
Sunlit
Object was in full shadow at epoch
Visualization orbit readout
Latitude
Unknown
Longitude
Unknown
Altitude
Unknown
Speed
Unknown
Apparent Right ascension
Unknown
Apparent Declination
Unknown
Sunlit
N/A
Visualization observer readout
Local Sidereal Time
04:01:02
Azimuth
Unknown
Elevation
Unknown
Doppler factor
Unknown
Orbital elements
Apogee altitude
1,658.978 km
Perigee altitude
1,500.693 km
Semi-major axis
7,957.972 km
Eccentricity
0.00995
Inclination
102.5569°
RAAN
354.3451°
Arg. of periapsis
216.5408°
True anomaly
298.11286°
Mean anomaly
299.1145°
Eccentric anomaly
298.61428°
Mean motion
3.05731 °/min
Orbital period
117.75 mins
BSTAR
-0.00011802
Loading maneuver chart data...
Computing Atmospheric mass density...
Loading historical data...
Loading historical data...
Loading historical data...
Loading historical data...
Loading historical data...
Loading historical data...
Loading historical data...

Documentation

Showing up to 5 results
|